Regional Weather Roundup
Issued by NWS

Home | Current Version | Previous Version | Graphics & Text | Print | Product List | Glossary On
Versions: 1 2 3 4 5 6 7 8 9 10 11 12 13 14 15 16 17 18 19 20 21 22 23 24 25 26 27 28 29 30 31 32 33 34 35 36 37 38 39 40 41 42 43 44 45 46 47 48 49 50
000
ASUS43 KIND 011709
RWRIN

WEATHER ROUNDUP FOR INDIANA
NATIONAL WEATHER SERVICE INDIANAPOLIS IN
100 PM EDT FRI AUG 01 2014

NOTE: "FAIR" INDICATES FEW OR NO CLOUDS BELOW 12,000 FEET WITH NO
SIGNIFICANT WEATHER AND/OR OBSTRUCTIONS TO VISIBILITY.

* - STATION DOES NOT REPORT WEATHER SUCH AS PRECIPITATION OR FOG.

+ - STATION NOT QUALITY CONTROLLED BY THE NATIONAL WEATHER SERVICE.
    USE DATA WITH CAUTION...ESPECIALLY DEWPOINT AND RELATIVE
    HUMIDITY OBSERVATIONS.

INZ001>003-010>013-019-020-011800-
NORTHWEST INDIANA

CITY           SKY/WX    TMP DP  RH WIND       PRES   REMARKS
GARY /AIRPORT/ PTSUNNY   81  61  50 W8        30.10F
KNOX *+        PTSUNNY   79  61  54 SW5       30.10F
LA PORTE +     PTSUNNY   74  62  64 N9        30.13R THUNDER
MICHIGAN CITY+ CLOUDY    70  57  64 CALM      30.12S
MONTICELLO +   MOSUNNY   77  61  56 CALM      30.11F
VALPARAISO     NOT AVBL

$$

LMZ046-743>745-011800-
SOUTHERN LAKE MICHIGAN

STATION/POSITION TIME  TEMP WIND        PRES
                       AIR  DIR/SP/G
                 (UTC) (F)  (DEG/KT/KT) (MB)
MICHIGAN CITY    1700   73  270/  1/  2   N/A

$$

INZ004-005-014>016-021>024-011800-
NORTH CENTRAL INDIANA

CITY           SKY/WX    TMP DP  RH WIND       PRES   REMARKS
ELKHART        MOSUNNY   77  55  47 W5        30.12
GOSHEN         MOSUNNY   79  63  57 SW8       30.11F
LOGANSPORT +   MOSUNNY   77  59  53 CALM      30.13S
PERU/GRISSOM   MOSUNNY   79  62  55 VRB3      30.12F
ROCHESTER +    PTSUNNY   81  59  47 S3        30.12F
SOUTH BEND     PTSUNNY   78  60  53 W7        30.12S THUNDER
WARSAW +       PTSUNNY   77  63  61 SW3       30.12S

$$

INZ006>009-017-018-025>027-011800-
NORTHEAST INDIANA

CITY           SKY/WX    TMP DP  RH WIND       PRES   REMARKS
ANGOLA *+      MOSUNNY   81  63  54 W6        30.12S
AUBURN +       PTSUNNY   79  61  53 SW3       30.13S
FORT WAYNE     PTSUNNY   78  60  53 W3        30.13S
HUNTINGTON +   MOSUNNY   79  61  53 E3        30.12F

$$

INZ028-029-035-036-043>045-051>053-011800-
WEST CENTRAL INDIANA

CITY           SKY/WX    TMP DP  RH WIND       PRES   REMARKS
GREENCASTLE +  PTSUNNY   79  61  53 S7        30.12F
LAFAYETTE      MOSUNNY   79  60  52 W5        30.11S
TERRE HAUTE    PTSUNNY   81  61  50 SE6       30.11S

$$

INZ030>032-037>040-046>048-054>057-064-065-011800-
CENTRAL INDIANA

CITY           SKY/WX    TMP DP  RH WIND       PRES   REMARKS
ANDERSON       PTSUNNY   77  59  53 NW8       30.14S
CP ATTERBURY + SUNNY     81  57  44 CALM      30.12S
FRANKFORT +    SUNNY     79  61  53 CALM      30.13
GREENWOOD *+   SUNNY     82  64  54 NE5       30.12F
INDIANAPOLIS   PTSUNNY   78  59  51 CALM      30.11F
-EAGLE CREEK   SUNNY     80  56  43 W3        30.11F
KOKOMO *+      MOSUNNY   79  63  57 CALM      30.12F
MARION +       PTSUNNY   76  61  57 CALM      30.14S
MT COMFORT *+  SUNNY     81  63  54 CALM      30.12F
SHELBYVILLE    PTSUNNY   80  61  52 CALM      30.11F
ZIONSVILLE +   MOSUNNY   79  58  48 NW5       30.13F

$$

INZ033-034-041-042-049-050-058-059-011800-
EAST CENTRAL INDIANA

CITY           SKY/WX    TMP DP  RH WIND       PRES   REMARKS
MUNCIE         PTSUNNY   76  60  57 NW6       30.13S

$$

INZ060-061-067>069-081>083-085>088-011800-
SOUTHWEST INDIANA

CITY           SKY/WX    TMP DP  RH WIND       PRES   REMARKS
EVANSVILLE     SUNNY     83  58  42 NE5       30.10S
WASHINGTON +   SUNNY     80  64  57 E5        30.10F

$$

INZ062-063-066-070>080-084-089>092-011800-
SOUTH CENTRAL AND SOUTHEAST INDIANA

CITY           SKY/WX    TMP DP  RH WIND       PRES   REMARKS
BEDFORD +      MOSUNNY   79  59  50 CALM      30.11
BLOOMINGTON    PTSUNNY   80  60  50 CALM      30.12S
NORTH VERNON + MOSUNNY   81  61  50 CALM      30.12

$$




USA.gov is the U.S. government's official web portal to all federal, state and local government web resources and services.